Terug naar catalogus

STARLINK-30814

ActiefCommunicatieVLEO
NORAD 58165·PAYLOAD·🇺🇸 United States

Gelanceerd Oct 29, 2023 vanaf Vandenberg Space Force Base

Loading…

Volgende Passages (komende 24 uur)

TLE

VersSource: CelesTrak SupGP

Epoch: Sep 14, 2026, 22:33 UTC

1 58165C 23166R   26257.94006944  .00034815  00000+0  10289-2 0  2570
2 58165  53.1605  59.6198 0001222  80.0695  69.2443 15.34365251    14

Volg STARLINK-30814 in realtime met AllMySat

Download on the App Store